Location: West Chester
(39.9610°N, 75.6060°W)
Time: 20:17:17
(UTC-04:00)

ARIANE 6 FM1 Upper Stage - Pass Details

Date: 20 September 2024
Orbit: 563 x 594 km, 62.0° (Epoch: 11 October)

Event Time Altitude Azimuth Distance (km) Brightness Sun altitude
Exits shadow 03:20:12 - 13° (NNE) 2,001 6.0 -37.6°
Reaches altitude 10° 03:20:55 10° 22° (NNE) 1,938 6.0 -37.5°
Maximum altitude 03:21:37 10° 31° (NNE) 1,917 6.0 -37.4°
Drops below altitude 10° 03:22:19 10° 41° (NE) 1,938 6.1 -37.3°
Sets 03:26:48 0° 83° (E) 2,839 6.9 -36.6°
